Location: Brookfield Center
(41.2406°N, 80.5579°W)
Time: 15:39:40
(UTC+00:00)

COSMO-SKYMED 1 - Pass Details

Date: 18 January 2020
Orbit: 621 x 623 km, 97.9° (Epoch: 21 February)

Event Time Altitude Azimuth Distance (km) Brightness Sun altitude
Rises 00:07:07 0° 3° (N) 2,912 5.9 -19.8°
Reaches altitude 10° 00:09:27 10° 355° (N) 2,001 5.1 -20.3°
Maximum altitude 00:13:24 35° 290° (WNW) 1,018 4.1 -21.0°
Drops below altitude 10° 00:17:19 10° 225° (SW) 1,986 5.9 -21.7°
Sets 00:19:38 0° 216° (SW) 2,888 6.7 -22.1°
